Total_Precipitation_Accumulation
0.00 0.00 0.00 0.00 0.00 0.01 0.02 0.02 0.03 0.03 0.03 0.04 0.05 0.07 0.09 0.11 0.14 0.16 0.16 0.16 0.14 0.13 0.11 0.11 0.11 0.11 0.09 0.06 0.03 0.02 0.01 0.01 0.00 0.00 0.00 0.00 0.00 0.00 0.00 0.00 0.00 0.00 0.00
0.00 0.00 0.00 0.00 0.01 0.02 0.04 0.06 0.06 0.06 0.07 0.08 0.11 0.12 0.13 0.14 0.16 0.20 0.23 0.24 0.24 0.21 0.17 0.13 0.11 0.10 0.10 0.07 0.04 0.03 0.02 0.02 0.02 0.01 0.00 0.00 0.00 0.00 0.00 0.00 0.00 0.00 0.00
0.00 0.00 0.00 0.00 0.01 0.03 0.06 0.10 0.15 0.18 0.21 0.22 0.24 0.25 0.26 0.26 0.26 0.28 0.32 0.38 0.40 0.36 0.28 0.21 0.14 0.09 0.08 0.06 0.05 0.03 0.02 0.02 0.03 0.03 0.02 0.02 0.02 0.01 0.01 0.00 0.00 0.00 0.01
0.00 0.00 0.00 0.01 0.04 0.06 0.09 0.15 0.24 0.33 0.40 0.45 0.48 0.48 0.46 0.45 0.44 0.45 0.47 0.49 0.51 0.48 0.40 0.30 0.21 0.13 0.08 0.06 0.04 0.04 0.03 0.02 0.02 0.03 0.04 0.04 0.05 0.03 0.03 0.02 0.02 0.01 0.01
0.01 0.01 0.02 0.05 0.10 0.17 0.19 0.23 0.30 0.39 0.47 0.50 0.51 0.50 0.48 0.50 0.50 0.44 0.43 0.44 0.45 0.44 0.39 0.33 0.28 0.24 0.19 0.12 0.06 0.04 0.03 0.03 0.03 0.04 0.03 0.03 0.03 0.04 0.06 0.06 0.07 0.04 0.03
0.02 0.03 0.06 0.11 0.18 0.25 0.29 0.32 0.39 0.44 0.47 0.46 0.46 0.44 0.40 0.39 0.41 0.32 0.26 0.26 0.29 0.32 0.33 0.29 0.25 0.22 0.20 0.16 0.11 0.07 0.05 0.04 0.05 0.05 0.04 0.04 0.03 0.03 0.05 0.08 0.11 0.11 0.09
0.04 0.06 0.10 0.13 0.17 0.20 0.22 0.27 0.32 0.30 0.26 0.28 0.33 0.31 0.27 0.26 0.30 0.19 0.10 0.08 0.10 0.13 0.15 0.17 0.15 0.13 0.11 0.10 0.08 0.06 0.05 0.05 0.05 0.06 0.08 0.07 0.05 0.03 0.03 0.05 0.09 0.13 0.14
0.04 0.07 0.10 0.12 0.15 0.14 0.13 0.16 0.19 0.15 0.15 0.17 0.19 0.15 0.11 0.11 0.19 0.10 0.02 0.02 0.03 0.04 0.06 0.07 0.07 0.07 0.05 0.05 0.04 0.03 0.03 0.04 0.04 0.06 0.09 0.10 0.09 0.07 0.05 0.07 0.09 0.12 0.15
0.04 0.05 0.07 0.10 0.13 0.11 0.09 0.09 0.12 0.12 0.11 0.10 0.09 0.05 0.03 0.03 0.12 0.12 0.03 0.00 0.01 0.01 0.01 0.02 0.02 0.03 0.03 0.02 0.03 0.03 0.03 0.04 0.04 0.05 0.07 0.09 0.10 0.09 0.08 0.08 0.10 0.12 0.14
0.02 0.03 0.03 0.04 0.06 0.04 0.02 0.02 0.03 0.04 0.04 0.03 0.02 0.01 0.00 0.00 0.05 0.14 0.09 0.01 0.00 0.00 0.00 0.00 0.01 0.02 0.02 0.01 0.02 0.03 0.03 0.03 0.01 0.01 0.01 0.02 0.03 0.04 0.05 0.07 0.10 0.10 0.10
0.00 0.00 0.00 0.00 0.00 0.00 0.00 0.00 0.00 0.01 0.01 0.01 0.00 0.00 0.00 0.00 0.01 0.08 0.16 0.07 0.01 0.01 0.00 0.00 0.01 0.02 0.02 0.02 0.01 0.01 0.02 0.01 0.01 0.00 0.00 0.00 0.00 0.01 0.01 0.02 0.03 0.04 0.04
0.00 0.00 0.00 0.00 0.00 0.00 0.00 0.00 0.00 0.00 0.00 0.00 0.00 0.00 0.00 0.00 0.00 0.04 0.10 0.15 0.08 0.01 0.01 0.00 0.01 0.02 0.02 0.01 0.01 0.01 0.00 0.00 0.00 0.00 0.00 0.00 0.00 0.00 0.00 0.00 0.00 0.00 0.00
0.00 0.00 0.00 0.00 0.00 0.00 0.00 0.00 0.00 0.00 0.01 0.01 0.00 0.00 0.00 0.00 0.00 0.02 0.03 0.04 0.06 0.03 0.02 0.04 0.01 0.00 0.00 0.00 0.00 0.00 0.00 0.00 0.00 0.00 0.00 0.00 0.00 0.00 0.00 0.00 0.00 0.00 0.00
0.00 0.00 0.00 0.00 0.00 0.00 0.00 0.00 0.00 0.00 0.03 0.04 0.01 0.01 0.00 0.00 0.01 0.04 0.03 0.01 0.02 0.04 0.05 0.05 0.01 0.00 0.00 0.00 0.00 0.00 0.00 0.00 0.00 0.00 0.00 0.00 0.00 0.00 0.00 0.00 0.00 0.00 0.00
0.00 0.00 0.00 0.00 0.00 0.00 0.00 0.00 0.00 0.00 0.04 0.06 0.03 0.04 0.02 0.02 0.06 0.11 0.10 0.09 0.07 0.06 0.03 0.02 0.01 0.00 0.00 0.00 0.00 0.00 0.00 0.00 0.00 0.00 0.00 0.00 0.00 0.00 0.00 0.00 0.00 0.00 0.00
0.00 0.00 0.00 0.00 0.00 0.00 0.00 0.00 0.00 0.00 0.01 0.02 0.02 0.04 0.04 0.07 0.09 0.08 0.09 0.11 0.10 0.07 0.02 0.01 0.00 0.00 0.00 0.00 0.00 0.00 0.00 0.00 0.00 0.00 0.00 0.00 0.00 0.00 0.00 0.00 0.00 0.00 0.00
0.00 0.00 0.01 0.00 0.00 0.00 0.00 0.01 0.00 0.00 0.00 0.00 0.00 0.01 0.03 0.06 0.05 0.05 0.08 0.08 0.07 0.04 0.01 0.00 0.00 0.00 0.00 0.00 0.00 0.00 0.00 0.00 0.00 0.00 0.00 0.00 0.00 0.00 0.00 0.00 0.00 0.00 0.00
0.00 0.00 0.01 0.01 0.01 0.01 0.02 0.01 0.01 0.01 0.00 0.00 0.00 0.00 0.02 0.03 0.03 0.03 0.06 0.05 0.02 0.01 0.01 0.00 0.00 0.00 0.00 0.00 0.00 0.00 0.00 0.00 0.00 0.00 0.00 0.00 0.00 0.00 0.00 0.00 0.00 0.00 0.00
0.00 0.01 0.02 0.02 0.02 0.02 0.02 0.02 0.02 0.01 0.01 0.00 0.00 0.00 0.00 0.01 0.01 0.01 0.01 0.01 0.00 0.00 0.00 0.00 0.00 0.00 0.00 0.00 0.00 0.00 0.00 0.00 0.00 0.00 0.00 0.00 0.00 0.00 0.00 0.00 0.00 0.00 0.00
0.00 0.01 0.02 0.03 0.02 0.02 0.02 0.02 0.02 0.01 0.01 0.01 0.00 0.00 0.00 0.00 0.00 0.00 0.00 0.00 0.00 0.00 0.00 0.00 0.00 0.00 0.00 0.00 0.00 0.00 0.00 0.00 0.00 0.00 0.00 0.00 0.00 0.00 0.00 0.00 0.00 0.00 0.00
0.01 0.01 0.01 0.02 0.02 0.02 0.03 0.03 0.02 0.02 0.02 0.01 0.00 0.00 0.03 0.02 0.00 0.00 0.00 0.00 0.00 0.00 0.00 0.00 0.00 0.00 0.00 0.00 0.00 0.00 0.00 0.00 0.00 0.00 0.00 0.00 0.00 0.00 0.00 0.00 0.00 0.00 0.00
0.02 0.03 0.03 0.03 0.03 0.03 0.04 0.04 0.04 0.03 0.02 0.02 0.01 0.00 0.01 0.01 0.00 0.00 0.00 0.00 0.00 0.00 0.00 0.00 0.00 0.00 0.00 0.00 0.00 0.00 0.00 0.00 0.00 0.00 0.00 0.00 0.00 0.00 0.00 0.00 0.00 0.00 0.01
0.05 0.05 0.03 0.02 0.02 0.02 0.02 0.02 0.03 0.03 0.02 0.02 0.01 0.01 0.00 0.00 0.00 0.00 0.00 0.00 0.00 0.00 0.00 0.00 0.00 0.00 0.00 0.00 0.00 0.00 0.00 0.00 0.00 0.00 0.00 0.00 0.00 0.00 0.00 0.00 0.00 0.01 0.01
0.05 0.03 0.02 0.01 0.01 0.01 0.02 0.02 0.03 0.03 0.03 0.03 0.02 0.01 0.01 0.00 0.00 0.00 0.00 0.00 0.00 0.00 0.00 0.00 0.00 0.00 0.00 0.00 0.00 0.00 0.00 0.00 0.00 0.00 0.00 0.00 0.00 0.00 0.01 0.01 0.01 0.01 0.01
0.01 0.01 0.01 0.02 0.02 0.03 0.03 0.03 0.03 0.04 0.04 0.04 0.03 0.02 0.01 0.01 0.00 0.00 0.00 0.00 0.00 0.00 0.00 0.00 0.00 0.00 0.00 0.00 0.00 0.00 0.00 0.01 0.02 0.05 0.10 0.14 0.13 0.09 0.06 0.05 0.03 0.03 0.02
0.01 0.01 0.02 0.03 0.03 0.04 0.05 0.06 0.05 0.06 0.06 0.05 0.04 0.03 0.02 0.01 0.00 0.00 0.00 0.00 0.00 0.00 0.00 0.00 0.00 0.00 0.00 0.00 0.00 0.00 0.01 0.05 0.12 0.22 0.28 0.26 0.16 0.09 0.05 0.05 0.04 0.04 0.04